When you browse on this site, cookies collect data to enhance your experience and personalize the content and advertising you see.
Visit our Privacy Policy to learn more. By continuing to use the site, you agree to this use of cookies and data.
  • En España
  • Lista de países
  • Para 7 días
  • Temperatura del agua
  • Mapa Satelital
  • El tiempo en el mapa
  • Informadores
  • user-avatar
    Iniciar sesión

    Tiempo cada hora Asadabad

    Hoy, 18 Enero, Viernes

    Tiempo Temperatura Precipitaciones Viento Presión Humedad
    00:00 +4°C° 0 mm 3 mps 658 mmHg 27%
    01:00 +4°C° 0 mm 3 mps 658 mmHg 27%
    02:00 +4°C° 0 mm 3 mps 658 mmHg 26%
    03:00 +4°C° 0 mm 3 mps 657 mmHg 26%
    04:00 +4°C° 0 mm 3 mps 657 mmHg 25%
    05:00 +4°C° 0 mm 3 mps 657 mmHg 25%
    06:00 +6°C° 0 mm 2 mps 658 mmHg 27%
    07:00 +6°C° 0 mm 2 mps 658 mmHg 28%
    08:00 +7°C° 0 mm 2 mps 658 mmHg 29%
    09:00 +8°C° 0 mm 2 mps 658 mmHg 28%
    10:00 +10°C° 0 mm 2 mps 659 mmHg 28%
    11:00 +12°C° 0 mm 2 mps 659 mmHg 28%
    12:00 +12°C° 0 mm 2 mps 659 mmHg 30%
    13:00 +12°C° 0 mm 2 mps 658 mmHg 32%
    14:00 +12°C° 0 mm 2 mps 658 mmHg 34%
    15:00 +11°C° 0 mm 1 mps 658 mmHg 38%
    16:00 +11°C° 0 mm 1 mps 658 mmHg 41%
    17:00 +10°C° 0 mm 1 mps 658 mmHg 38%
    18:00 +9°C° 0 mm 1 mps 658 mmHg 40%
    19:00 +9°C° 0 mm 1 mps 659 mmHg 41%
    20:00 +8°C° 0 mm 1 mps 659 mmHg 43%
    21:00 +7°C° 0 mm 2 mps 659 mmHg 42%
    22:00 +6°C° 0 mm 2 mps 659 mmHg 41%
    23:00 +6°C° 0 mm 2 mps 659 mmHg 41%

    Mañana, 19 Enero, Sábado

    Tiempo Temperatura Precipitaciones Viento Presión Humedad
    00:00 +6°C° 0 mm 2 mps 659 mmHg 40%
    01:00 +6°C° 0 mm 2 mps 658 mmHg 40%
    02:00 +6°C° 0 mm 2 mps 658 mmHg 40%
    03:00 +6°C° 0 mm 2 mps 658 mmHg 40%
    04:00 +5°C° 0 mm 3 mps 658 mmHg 41%
    05:00 +4°C° 0 mm 3 mps 658 mmHg 41%
    06:00 +5°C° 0 mm 3 mps 658 mmHg 40%
    07:00 +6°C° 0 mm 2 mps 659 mmHg 40%
    08:00 +6°C° 0 mm 2 mps 659 mmHg 39%
    09:00 +7°C° 0.1 mm 2 mps 659 mmHg 39%
    10:00 +9°C° 0.1 mm 2 mps 660 mmHg 39%
    11:00 +10°C° 0.1 mm 2 mps 660 mmHg 39%
    12:00 +10°C° 0.3 mm 2 mps 660 mmHg 45%
    13:00 +9°C° 0.3 mm 2 mps 659 mmHg 51%
    14:00 +9°C° 0.3 mm 2 mps 659 mmHg 56%
    15:00 +9°C° 0.1 mm 2 mps 659 mmHg 58%
    16:00 +9°C° 0.1 mm 2 mps 659 mmHg 60%
    17:00 +8°C° 0.1 mm 2 mps 659 mmHg 62%
    18:00 +8°C° 0 mm 2 mps 659 mmHg 61%
    19:00 +7°C° 0 mm 3 mps 659 mmHg 61%
    20:00 +5°C° 0 mm 3 mps 659 mmHg 60%
    21:00 +5°C° 0.5 mm 3 mps 660 mmHg 62%
    22:00 +5°C° 0.5 mm 3 mps 660 mmHg 64%
    23:00 +6°C° 0.5 mm 2 mps 660 mmHg 66%

    Pasado mañana, 20 Enero, Domingo

    Tiempo Temperatura Precipitaciones Viento Presión Humedad
    00:00 +5°C° 1.1 mm 3 mps 660 mmHg 70%
    01:00 +5°C° 1.1 mm 3 mps 659 mmHg 73%
    02:00 +5°C° 1.1 mm 4 mps 659 mmHg 76%
    03:00 +5°C° 0.3 mm 4 mps 659 mmHg 76%
    04:00 +5°C° 0.3 mm 4 mps 659 mmHg 75%
    05:00 +5°C° 0.3 mm 4 mps 659 mmHg 74%
    06:00 +5°C° 0.2 mm 4 mps 659 mmHg 73%
    07:00 +5°C° 0.2 mm 4 mps 659 mmHg 73%
    08:00 +5°C° 0.2 mm 4 mps 659 mmHg 73%
    09:00 +5°C° 1.3 mm 4 mps 659 mmHg 75%
    10:00 +5°C° 1.3 mm 3 mps 659 mmHg 77%
    11:00 +5°C° 1.3 mm 3 mps 659 mmHg 80%
    12:00 +5°C° 2.3 mm 3 mps 658 mmHg 82%
    13:00 +6°C° 2.3 mm 2 mps 658 mmHg 84%
    14:00 +6°C° 2.3 mm 2 mps 657 mmHg 86%
    15:00 +6°C° 1.1 mm 2 mps 657 mmHg 86%
    16:00 +6°C° 1.1 mm 2 mps 657 mmHg 86%
    17:00 +5°C° 1.1 mm 2 mps 657 mmHg 86%
    18:00 +5°C° 0.6 mm 2 mps 658 mmHg 85%
    19:00 +5°C° 0.6 mm 2 mps 658 mmHg 84%
    20:00 +5°C° 0.6 mm 2 mps 658 mmHg 83%
    21:00 +5°C° 1.3 mm 2 mps 658 mmHg 83%
    22:00 +5°C° 1.3 mm 2 mps 658 mmHg 84%
    23:00 +5°C° 1.3 mm 2 mps 658 mmHg 84%

    21 Enero, Lunes

    Tiempo Temperatura Precipitaciones Viento Presión Humedad
    00:00 +5°C° 2.3 mm 2 mps 658 mmHg 85%
    01:00 +4°C° 2.3 mm 2 mps 657 mmHg 86%
    02:00 +4°C° 2.3 mm 2 mps 657 mmHg 87%
    03:00 +4°C° 1.7 mm 2 mps 657 mmHg 87%
    04:00 +4°C° 1.7 mm 2 mps 657 mmHg 87%
    05:00 +4°C° 1.7 mm 2 mps 657 mmHg 87%
    06:00 +4°C° 0.3 mm 2 mps 657 mmHg 85%
    07:00 +4°C° 0.3 mm 2 mps 657 mmHg 83%
    08:00 +5°C° 0.3 mm 2 mps 657 mmHg 81%
    09:00 +6°C° 0.1 mm 1 mps 657 mmHg 82%
    10:00 +7°C° 0.1 mm 1 mps 657 mmHg 83%
    11:00 +8°C° 0.1 mm 1 mps 657 mmHg 85%
    12:00 +8°C° 0.1 mm 1 mps 657 mmHg 85%
    13:00 +8°C° 0.1 mm 1 mps 656 mmHg 85%
    14:00 +8°C° 0.1 mm 1 mps 655 mmHg 85%
    15:00 +7°C° 0 mm 1 mps 655 mmHg 82%
    16:00 +7°C° 0 mm 1 mps 655 mmHg 79%
    17:00 +7°C° 0 mm 1 mps 655 mmHg 76%
    18:00 +6°C° 0 mm 1 mps 656 mmHg 76%
    19:00 +5°C° 0 mm 1 mps 656 mmHg 75%
    20:00 +5°C° 0 mm 1 mps 656 mmHg 75%
    21:00 +3°C° 0 mm 2 mps 656 mmHg 71%
    22:00 +3°C° 0 mm 2 mps 656 mmHg 67%
    23:00 +3°C° 0 mm 2 mps 656 mmHg 63%

    22 Enero, Martes

    Tiempo Temperatura Precipitaciones Viento Presión Humedad
    00:00 +2°C° 0 mm 2 mps 656 mmHg 60%
    01:00 +2°C° 0 mm 2 mps 655 mmHg 57%
    02:00 +2°C° 0 mm 2 mps 655 mmHg 55%
    03:00 +2°C° 0 mm 2 mps 655 mmHg 54%
    04:00 +1°C° 0 mm 3 mps 654 mmHg 52%
    05:00 0°C° 0 mm 3 mps 654 mmHg 51%
    06:00 0°C° 0 mm 3 mps 654 mmHg 51%
    07:00 0°C° 0 mm 3 mps 654 mmHg 50%
    08:00 0°C° 0 mm 3 mps 655 mmHg 49%
    09:00 +3°C° 0 mm 2 mps 655 mmHg 54%
    10:00 +6°C° 0 mm 1 mps 655 mmHg 59%
    11:00 +7°C° 0 mm 1 mps 655 mmHg 63%
    12:00 +8°C° 0 mm 1 mps 654 mmHg 64%
    13:00 +8°C° 0 mm 1 mps 654 mmHg 64%
    14:00 +8°C° 0 mm 1 mps 654 mmHg 64%
    15:00 +7°C° 0 mm 1 mps 654 mmHg 61%
    16:00 +7°C° 0 mm 1 mps 654 mmHg 58%
    17:00 +6°C° 0 mm 1 mps 654 mmHg 55%
    18:00 +5°C° 0 mm 1 mps 655 mmHg 57%
    19:00 +4°C° 0 mm 1 mps 656 mmHg 59%
    20:00 +2°C° 0 mm 2 mps 656 mmHg 62%
    21:00 +2°C° 0 mm 2 mps 656 mmHg 60%
    22:00 +2°C° 0 mm 2 mps 657 mmHg 59%
    23:00 +1°C° 0 mm 2 mps 657 mmHg 57%

    23 Enero, Miércoles

    Tiempo Temperatura Precipitaciones Viento Presión Humedad
    00:00 +1°C° 0 mm 2 mps 657 mmHg 57%
    01:00 +1°C° 0 mm 2 mps 657 mmHg 56%
    02:00 +1°C° 0 mm 2 mps 657 mmHg 56%
    03:00 +1°C° 0 mm 2 mps 657 mmHg 56%
    04:00 +1°C° 0 mm 2 mps 658 mmHg 55%
    05:00 -1°C° 0 mm 2 mps 658 mmHg 55%
    06:00 +1°C° 0 mm 2 mps 658 mmHg 55%
    07:00 +1°C° 0 mm 2 mps 658 mmHg 55%
    08:00 +1°C° 0 mm 2 mps 659 mmHg 55%
    09:00 +2°C° 0.1 mm 2 mps 659 mmHg 58%
    10:00 +3°C° 0.1 mm 2 mps 660 mmHg 60%
    11:00 +4°C° 0.1 mm 2 mps 660 mmHg 62%
    12:00 +4°C° 0.2 mm 2 mps 660 mmHg 65%
    13:00 +4°C° 0.2 mm 2 mps 660 mmHg 68%
    14:00 +4°C° 0.2 mm 2 mps 659 mmHg 71%
    15:00 +4°C° 0.2 mm 2 mps 659 mmHg 72%
    16:00 +3°C° 0.2 mm 2 mps 659 mmHg 74%
    17:00 +3°C° 0.2 mm 2 mps 660 mmHg 76%
    18:00 +3°C° 0.1 mm 2 mps 660 mmHg 76%
    19:00 +2°C° 0.1 mm 2 mps 661 mmHg 75%
    20:00 +2°C° 0.1 mm 2 mps 661 mmHg 75%
    21:00 +2°C° 0.1 mm 2 mps 661 mmHg 74%
    22:00 +2°C° 0.1 mm 2 mps 661 mmHg 73%
    23:00 +1°C° 0.1 mm 2 mps 661 mmHg 71%
    Mostrar más